Index of /20260430/WXO-DD/model_gdps/15km/00/042
Name Last modified Size Description
Parent Directory -
20260430T00Z_MSC_GDPS_AbsoluteVorticity_IsbL-0200_LatLon0.15_PT042H.grib2 2026-04-30 04:09 1.2M
20260430T00Z_MSC_GDPS_AbsoluteVorticity_IsbL-0250_LatLon0.15_PT042H.grib2 2026-04-30 04:09 1.3M
20260430T00Z_MSC_GDPS_AbsoluteVorticity_IsbL-0500_LatLon0.15_PT042H.grib2 2026-04-30 04:09 1.4M
20260430T00Z_MSC_GDPS_AbsoluteVorticity_IsbL-0700_LatLon0.15_PT042H.grib2 2026-04-30 04:09 1.3M
20260430T00Z_MSC_GDPS_AbsoluteVorticity_IsbL-0850_LatLon0.15_PT042H.grib2 2026-04-30 04:09 1.6M
20260430T00Z_MSC_GDPS_AirTemp-Max_AGL-2m_LatLon0.15_PT042H.grib2 2026-04-30 04:09 746K
20260430T00Z_MSC_GDPS_AirTemp-Min_AGL-2m_LatLon0.15_PT042H.grib2 2026-04-30 04:09 793K
20260430T00Z_MSC_GDPS_AirTemp_AGL-120m_LatLon0.15_PT042H.grib2 2026-04-30 04:09 791K
20260430T00Z_MSC_GDPS_AirTemp_AGL-2m_LatLon0.15_PT042H.grib2 2026-04-30 04:09 1.0M
20260430T00Z_MSC_GDPS_AirTemp_AGL-40m_LatLon0.15_PT042H.grib2 2026-04-30 04:09 814K
20260430T00Z_MSC_GDPS_AirTemp_AGL-80m_LatLon0.15_PT042H.grib2 2026-04-30 04:09 800K
20260430T00Z_MSC_GDPS_AirTemp_IsbL-0001_LatLon0.15_PT042H.grib2 2026-04-30 04:09 656K
20260430T00Z_MSC_GDPS_AirTemp_IsbL-0005_LatLon0.15_PT042H.grib2 2026-04-30 04:09 686K
20260430T00Z_MSC_GDPS_AirTemp_IsbL-0010_LatLon0.15_PT042H.grib2 2026-04-30 04:09 759K
20260430T00Z_MSC_GDPS_AirTemp_IsbL-0020_LatLon0.15_PT042H.grib2 2026-04-30 04:09 788K
20260430T00Z_MSC_GDPS_AirTemp_IsbL-0030_LatLon0.15_PT042H.grib2 2026-04-30 04:09 753K
20260430T00Z_MSC_GDPS_AirTemp_IsbL-0050_LatLon0.15_PT042H.grib2 2026-04-30 04:09 806K
20260430T00Z_MSC_GDPS_AirTemp_IsbL-0100_LatLon0.15_PT042H.grib2 2026-04-30 04:09 958K
20260430T00Z_MSC_GDPS_AirTemp_IsbL-0150_LatLon0.15_PT042H.grib2 2026-04-30 04:09 1.0M
20260430T00Z_MSC_GDPS_AirTemp_IsbL-0175_LatLon0.15_PT042H.grib2 2026-04-30 04:09 961K
20260430T00Z_MSC_GDPS_AirTemp_IsbL-0200_LatLon0.15_PT042H.grib2 2026-04-30 04:09 1.0M
20260430T00Z_MSC_GDPS_AirTemp_IsbL-0225_LatLon0.15_PT042H.grib2 2026-04-30 04:09 1.0M
20260430T00Z_MSC_GDPS_AirTemp_IsbL-0250_LatLon0.15_PT042H.grib2 2026-04-30 04:09 1.0M
20260430T00Z_MSC_GDPS_AirTemp_IsbL-0275_LatLon0.15_PT042H.grib2 2026-04-30 04:09 1.0M
20260430T00Z_MSC_GDPS_AirTemp_IsbL-0300_LatLon0.15_PT042H.grib2 2026-04-30 04:09 945K
20260430T00Z_MSC_GDPS_AirTemp_IsbL-0350_LatLon0.15_PT042H.grib2 2026-04-30 04:09 927K
20260430T00Z_MSC_GDPS_AirTemp_IsbL-0400_LatLon0.15_PT042H.grib2 2026-04-30 04:09 938K
20260430T00Z_MSC_GDPS_AirTemp_IsbL-0450_LatLon0.15_PT042H.grib2 2026-04-30 04:09 959K
20260430T00Z_MSC_GDPS_AirTemp_IsbL-0500_LatLon0.15_PT042H.grib2 2026-04-30 04:09 1.0M
20260430T00Z_MSC_GDPS_AirTemp_IsbL-0550_LatLon0.15_PT042H.grib2 2026-04-30 04:09 799K
20260430T00Z_MSC_GDPS_AirTemp_IsbL-0600_LatLon0.15_PT042H.grib2 2026-04-30 04:09 891K
20260430T00Z_MSC_GDPS_AirTemp_IsbL-0650_LatLon0.15_PT042H.grib2 2026-04-30 04:09 923K
20260430T00Z_MSC_GDPS_AirTemp_IsbL-0700_LatLon0.15_PT042H.grib2 2026-04-30 04:09 961K
20260430T00Z_MSC_GDPS_AirTemp_IsbL-0750_LatLon0.15_PT042H.grib2 2026-04-30 04:09 1.0M
20260430T00Z_MSC_GDPS_AirTemp_IsbL-0800_LatLon0.15_PT042H.grib2 2026-04-30 04:09 1.1M
20260430T00Z_MSC_GDPS_AirTemp_IsbL-0850_LatLon0.15_PT042H.grib2 2026-04-30 04:09 1.1M
20260430T00Z_MSC_GDPS_AirTemp_IsbL-0875_LatLon0.15_PT042H.grib2 2026-04-30 04:09 1.2M
20260430T00Z_MSC_GDPS_AirTemp_IsbL-0900_LatLon0.15_PT042H.grib2 2026-04-30 04:09 1.1M
20260430T00Z_MSC_GDPS_AirTemp_IsbL-0925_LatLon0.15_PT042H.grib2 2026-04-30 04:09 1.1M
20260430T00Z_MSC_GDPS_AirTemp_IsbL-0950_LatLon0.15_PT042H.grib2 2026-04-30 04:09 1.1M
20260430T00Z_MSC_GDPS_AirTemp_IsbL-0970_LatLon0.15_PT042H.grib2 2026-04-30 04:09 1.2M
20260430T00Z_MSC_GDPS_AirTemp_IsbL-0985_LatLon0.15_PT042H.grib2 2026-04-30 04:09 1.2M
20260430T00Z_MSC_GDPS_AirTemp_IsbL-1000_LatLon0.15_PT042H.grib2 2026-04-30 04:09 1.1M
20260430T00Z_MSC_GDPS_AirTemp_IsbL-1015_LatLon0.15_PT042H.grib2 2026-04-30 04:09 1.1M
20260430T00Z_MSC_GDPS_Albedo_Sfc_LatLon0.15_PT042H.grib2 2026-04-30 04:09 245K
20260430T00Z_MSC_GDPS_CAPE_Sfc_LatLon0.15_PT042H.grib2 2026-04-30 04:09 3.7M
20260430T00Z_MSC_GDPS_CIN_Sfc_LatLon0.15_PT042H.grib2 2026-04-30 04:09 2.9M
20260430T00Z_MSC_GDPS_CloudWater_EAtm_LatLon0.15_PT042H.grib2 2026-04-30 04:09 535K
20260430T00Z_MSC_GDPS_ConvectivePrecip-Accum_Sfc_LatLon0.15_PT042H.grib2 2026-04-30 04:09 2.8M
20260430T00Z_MSC_GDPS_DewPointDepression_AGL-2m_LatLon0.15_PT042H.grib2 2026-04-30 04:09 768K
20260430T00Z_MSC_GDPS_DewPointDepression_IsbL-0010_LatLon0.15_PT042H.grib2 2026-04-30 04:09 60K
20260430T00Z_MSC_GDPS_DewPointDepression_IsbL-0020_LatLon0.15_PT042H.grib2 2026-04-30 04:09 64K
20260430T00Z_MSC_GDPS_DewPointDepression_IsbL-0030_LatLon0.15_PT042H.grib2 2026-04-30 04:09 71K
20260430T00Z_MSC_GDPS_DewPointDepression_IsbL-0050_LatLon0.15_PT042H.grib2 2026-04-30 04:09 371K
20260430T00Z_MSC_GDPS_DewPointDepression_IsbL-0100_LatLon0.15_PT042H.grib2 2026-04-30 04:09 414K
20260430T00Z_MSC_GDPS_DewPointDepression_IsbL-0150_LatLon0.15_PT042H.grib2 2026-04-30 04:09 468K
20260430T00Z_MSC_GDPS_DewPointDepression_IsbL-0175_LatLon0.15_PT042H.grib2 2026-04-30 04:09 568K
20260430T00Z_MSC_GDPS_DewPointDepression_IsbL-0200_LatLon0.15_PT042H.grib2 2026-04-30 04:09 688K
20260430T00Z_MSC_GDPS_DewPointDepression_IsbL-0225_LatLon0.15_PT042H.grib2 2026-04-30 04:09 789K
20260430T00Z_MSC_GDPS_DewPointDepression_IsbL-0250_LatLon0.15_PT042H.grib2 2026-04-30 04:09 875K
20260430T00Z_MSC_GDPS_DewPointDepression_IsbL-0275_LatLon0.15_PT042H.grib2 2026-04-30 04:09 887K
20260430T00Z_MSC_GDPS_DewPointDepression_IsbL-0300_LatLon0.15_PT042H.grib2 2026-04-30 04:09 924K
20260430T00Z_MSC_GDPS_DewPointDepression_IsbL-0350_LatLon0.15_PT042H.grib2 2026-04-30 04:09 951K
20260430T00Z_MSC_GDPS_DewPointDepression_IsbL-0400_LatLon0.15_PT042H.grib2 2026-04-30 04:09 1.0M
20260430T00Z_MSC_GDPS_DewPointDepression_IsbL-0450_LatLon0.15_PT042H.grib2 2026-04-30 04:09 1.0M
20260430T00Z_MSC_GDPS_DewPointDepression_IsbL-0500_LatLon0.15_PT042H.grib2 2026-04-30 04:09 1.0M
20260430T00Z_MSC_GDPS_DewPointDepression_IsbL-0550_LatLon0.15_PT042H.grib2 2026-04-30 04:09 1.0M
20260430T00Z_MSC_GDPS_DewPointDepression_IsbL-0600_LatLon0.15_PT042H.grib2 2026-04-30 04:09 1.0M
20260430T00Z_MSC_GDPS_DewPointDepression_IsbL-0650_LatLon0.15_PT042H.grib2 2026-04-30 04:09 1.1M
20260430T00Z_MSC_GDPS_DewPointDepression_IsbL-0700_LatLon0.15_PT042H.grib2 2026-04-30 04:09 1.1M
20260430T00Z_MSC_GDPS_DewPointDepression_IsbL-0750_LatLon0.15_PT042H.grib2 2026-04-30 04:09 1.1M
20260430T00Z_MSC_GDPS_DewPointDepression_IsbL-0800_LatLon0.15_PT042H.grib2 2026-04-30 04:09 1.2M
20260430T00Z_MSC_GDPS_DewPointDepression_IsbL-0850_LatLon0.15_PT042H.grib2 2026-04-30 04:09 1.2M
20260430T00Z_MSC_GDPS_DewPointDepression_IsbL-0875_LatLon0.15_PT042H.grib2 2026-04-30 04:09 1.1M
20260430T00Z_MSC_GDPS_DewPointDepression_IsbL-0900_LatLon0.15_PT042H.grib2 2026-04-30 04:09 1.1M
20260430T00Z_MSC_GDPS_DewPointDepression_IsbL-0925_LatLon0.15_PT042H.grib2 2026-04-30 04:09 1.0M
20260430T00Z_MSC_GDPS_DewPointDepression_IsbL-0950_LatLon0.15_PT042H.grib2 2026-04-30 04:09 1.0M
20260430T00Z_MSC_GDPS_DewPointDepression_IsbL-0970_LatLon0.15_PT042H.grib2 2026-04-30 04:09 1.0M
20260430T00Z_MSC_GDPS_DewPointDepression_IsbL-0985_LatLon0.15_PT042H.grib2 2026-04-30 04:09 1.0M
20260430T00Z_MSC_GDPS_DewPointDepression_IsbL-1000_LatLon0.15_PT042H.grib2 2026-04-30 04:09 1.0M
20260430T00Z_MSC_GDPS_DewPointDepression_IsbL-1015_LatLon0.15_PT042H.grib2 2026-04-30 04:09 922K
20260430T00Z_MSC_GDPS_DewPoint_AGL-2m_LatLon0.15_PT042H.grib2 2026-04-30 04:09 612K
20260430T00Z_MSC_GDPS_DownwardLongwaveRadiationFlux-Accum_Sfc_LatLon0.15_PT042H.grib2 2026-04-30 04:09 761K
20260430T00Z_MSC_GDPS_DownwardShortwaveRadiationFlux-Accum_NTAtm_LatLon0.15_PT042H.grib2 2026-04-30 04:09 292K
20260430T00Z_MSC_GDPS_DownwardShortwaveRadiationFlux-Accum_Sfc_LatLon0.15_PT042H.grib2 2026-04-30 04:09 1.0M
20260430T00Z_MSC_GDPS_FreezingRain-Accum12h_Sfc_LatLon0.15_PT042H.grib2 2026-04-30 04:09 117K
20260430T00Z_MSC_GDPS_FreezingRain-Accum1h_Sfc_LatLon0.15_PT042H.grib2 2026-04-30 04:09 41K
20260430T00Z_MSC_GDPS_FreezingRain-Accum24h_Sfc_LatLon0.15_PT042H.grib2 2026-04-30 04:09 168K
20260430T00Z_MSC_GDPS_FreezingRain-Accum3h_Sfc_LatLon0.15_PT042H.grib2 2026-04-30 04:09 56K
20260430T00Z_MSC_GDPS_FreezingRain-Accum6h_Sfc_LatLon0.15_PT042H.grib2 2026-04-30 04:09 93K
20260430T00Z_MSC_GDPS_FreezingRain-Accum_Sfc_LatLon0.15_PT042H.grib2 2026-04-30 04:09 247K
20260430T00Z_MSC_GDPS_GeopotentialHeight_IsbL-0001_LatLon0.15_PT042H.grib2 2026-04-30 04:09 377K
20260430T00Z_MSC_GDPS_GeopotentialHeight_IsbL-0005_LatLon0.15_PT042H.grib2 2026-04-30 04:09 491K
20260430T00Z_MSC_GDPS_GeopotentialHeight_IsbL-0010_LatLon0.15_PT042H.grib2 2026-04-30 04:09 482K
20260430T00Z_MSC_GDPS_GeopotentialHeight_IsbL-0020_LatLon0.15_PT042H.grib2 2026-04-30 04:09 416K
20260430T00Z_MSC_GDPS_GeopotentialHeight_IsbL-0030_LatLon0.15_PT042H.grib2 2026-04-30 04:09 573K
20260430T00Z_MSC_GDPS_GeopotentialHeight_IsbL-0050_LatLon0.15_PT042H.grib2 2026-04-30 04:09 574K
20260430T00Z_MSC_GDPS_GeopotentialHeight_IsbL-0100_LatLon0.15_PT042H.grib2 2026-04-30 04:09 611K
20260430T00Z_MSC_GDPS_GeopotentialHeight_IsbL-0150_LatLon0.15_PT042H.grib2 2026-04-30 04:09 631K
20260430T00Z_MSC_GDPS_GeopotentialHeight_IsbL-0175_LatLon0.15_PT042H.grib2 2026-04-30 04:09 635K
20260430T00Z_MSC_GDPS_GeopotentialHeight_IsbL-0200_LatLon0.15_PT042H.grib2 2026-04-30 04:09 638K
20260430T00Z_MSC_GDPS_GeopotentialHeight_IsbL-0225_LatLon0.15_PT042H.grib2 2026-04-30 04:09 642K
20260430T00Z_MSC_GDPS_GeopotentialHeight_IsbL-0250_LatLon0.15_PT042H.grib2 2026-04-30 04:09 645K
20260430T00Z_MSC_GDPS_GeopotentialHeight_IsbL-0275_LatLon0.15_PT042H.grib2 2026-04-30 04:09 643K
20260430T00Z_MSC_GDPS_GeopotentialHeight_IsbL-0300_LatLon0.15_PT042H.grib2 2026-04-30 04:09 641K
20260430T00Z_MSC_GDPS_GeopotentialHeight_IsbL-0350_LatLon0.15_PT042H.grib2 2026-04-30 04:09 632K
20260430T00Z_MSC_GDPS_GeopotentialHeight_IsbL-0400_LatLon0.15_PT042H.grib2 2026-04-30 04:09 623K
20260430T00Z_MSC_GDPS_GeopotentialHeight_IsbL-0450_LatLon0.15_PT042H.grib2 2026-04-30 04:09 615K
20260430T00Z_MSC_GDPS_GeopotentialHeight_IsbL-0500_LatLon0.15_PT042H.grib2 2026-04-30 04:09 535K
20260430T00Z_MSC_GDPS_GeopotentialHeight_IsbL-0550_LatLon0.15_PT042H.grib2 2026-04-30 04:09 530K
20260430T00Z_MSC_GDPS_GeopotentialHeight_IsbL-0600_LatLon0.15_PT042H.grib2 2026-04-30 04:09 526K
20260430T00Z_MSC_GDPS_GeopotentialHeight_IsbL-0650_LatLon0.15_PT042H.grib2 2026-04-30 04:09 692K
20260430T00Z_MSC_GDPS_GeopotentialHeight_IsbL-0700_LatLon0.15_PT042H.grib2 2026-04-30 04:09 693K
20260430T00Z_MSC_GDPS_GeopotentialHeight_IsbL-0750_LatLon0.15_PT042H.grib2 2026-04-30 04:09 693K
20260430T00Z_MSC_GDPS_GeopotentialHeight_IsbL-0800_LatLon0.15_PT042H.grib2 2026-04-30 04:09 708K
20260430T00Z_MSC_GDPS_GeopotentialHeight_IsbL-0850_LatLon0.15_PT042H.grib2 2026-04-30 04:09 716K
20260430T00Z_MSC_GDPS_GeopotentialHeight_IsbL-0875_LatLon0.15_PT042H.grib2 2026-04-30 04:09 717K
20260430T00Z_MSC_GDPS_GeopotentialHeight_IsbL-0900_LatLon0.15_PT042H.grib2 2026-04-30 04:09 726K
20260430T00Z_MSC_GDPS_GeopotentialHeight_IsbL-0925_LatLon0.15_PT042H.grib2 2026-04-30 04:09 730K
20260430T00Z_MSC_GDPS_GeopotentialHeight_IsbL-0950_LatLon0.15_PT042H.grib2 2026-04-30 04:09 741K
20260430T00Z_MSC_GDPS_GeopotentialHeight_IsbL-0970_LatLon0.15_PT042H.grib2 2026-04-30 04:09 751K
20260430T00Z_MSC_GDPS_GeopotentialHeight_IsbL-0985_LatLon0.15_PT042H.grib2 2026-04-30 04:09 768K
20260430T00Z_MSC_GDPS_GeopotentialHeight_IsbL-1000_LatLon0.15_PT042H.grib2 2026-04-30 04:09 789K
20260430T00Z_MSC_GDPS_GeopotentialHeight_IsbL-1015_LatLon0.15_PT042H.grib2 2026-04-30 04:09 813K
20260430T00Z_MSC_GDPS_Humidex_Sfc_LatLon0.15_PT042H.grib2 2026-04-30 04:09 5.3M
20260430T00Z_MSC_GDPS_IcePellets-Accum12h_Sfc_LatLon0.15_PT042H.grib2 2026-04-30 04:09 29K
20260430T00Z_MSC_GDPS_IcePellets-Accum1h_Sfc_LatLon0.15_PT042H.grib2 2026-04-30 04:09 11K
20260430T00Z_MSC_GDPS_IcePellets-Accum24h_Sfc_LatLon0.15_PT042H.grib2 2026-04-30 04:09 40K
20260430T00Z_MSC_GDPS_IcePellets-Accum3h_Sfc_LatLon0.15_PT042H.grib2 2026-04-30 04:09 13K
20260430T00Z_MSC_GDPS_IcePellets-Accum6h_Sfc_LatLon0.15_PT042H.grib2 2026-04-30 04:09 20K
20260430T00Z_MSC_GDPS_IcePellets-Accum_Sfc_LatLon0.15_PT042H.grib2 2026-04-30 04:09 52K
20260430T00Z_MSC_GDPS_KIndex_Sfc_LatLon0.15_PT042H.grib2 2026-04-30 04:09 6.5M
20260430T00Z_MSC_GDPS_LatentHeatNetFlux_Sfc_LatLon0.15_PT042H.grib2 2026-04-30 04:09 518K
20260430T00Z_MSC_GDPS_LiftedIndex-MU-VT_IsbL-0500_LatLon0.15_PT042H.grib2 2026-04-30 04:09 5.3M
20260430T00Z_MSC_GDPS_NetLongwaveRadiationFlux-Accum_Sfc_LatLon0.15_PT042H.grib2 2026-04-30 04:09 1.1M
20260430T00Z_MSC_GDPS_NetShortwaveRadiationFlux-Accum_Sfc_LatLon0.15_PT042H.grib2 2026-04-30 04:09 968K
20260430T00Z_MSC_GDPS_O3MixingRatio_Sfc_LatLon0.15_PT042H.grib2 2026-04-30 04:50 2.0M
20260430T00Z_MSC_GDPS_O3_EAtm_LatLon0.15_PT042H.grib2 2026-04-30 04:50 2.5M
20260430T00Z_MSC_GDPS_PlanetaryBoundaryLayerHeight_Sfc_LatLon0.15_PT042H.grib2 2026-04-30 04:09 2.5M
20260430T00Z_MSC_GDPS_Precip-Accum12h_Sfc_LatLon0.15_PT042H.grib2 2026-04-30 04:09 4.0M
20260430T00Z_MSC_GDPS_Precip-Accum1h_Sfc_LatLon0.15_PT042H.grib2 2026-04-30 04:09 3.2M
20260430T00Z_MSC_GDPS_Precip-Accum24h_Sfc_LatLon0.15_PT042H.grib2 2026-04-30 04:09 4.5M
20260430T00Z_MSC_GDPS_Precip-Accum3h_Sfc_LatLon0.15_PT042H.grib2 2026-04-30 04:09 3.5M
20260430T00Z_MSC_GDPS_Precip-Accum6h_Sfc_LatLon0.15_PT042H.grib2 2026-04-30 04:09 3.8M
20260430T00Z_MSC_GDPS_Precip-Accum_Sfc_LatLon0.15_PT042H.grib2 2026-04-30 04:09 4.8M
20260430T00Z_MSC_GDPS_PrecipRate_Sfc_LatLon0.15_PT042H.grib2 2026-04-30 04:09 3.0M
20260430T00Z_MSC_GDPS_PrecipType-Instant_Sfc_LatLon0.15_PT042H.grib2 2026-04-30 04:09 1.6M
20260430T00Z_MSC_GDPS_Pressure_MSL_LatLon0.15_PT042H.grib2 2026-04-30 04:09 828K
20260430T00Z_MSC_GDPS_Pressure_PVU-1.5_LatLon0.15_PT042H.grib2 2026-04-30 04:09 5.8M
20260430T00Z_MSC_GDPS_Pressure_PVU-1_LatLon0.15_PT042H.grib2 2026-04-30 04:09 6.0M
20260430T00Z_MSC_GDPS_Pressure_PVU-2_LatLon0.15_PT042H.grib2 2026-04-30 04:09 5.6M
20260430T00Z_MSC_GDPS_Pressure_Sfc_LatLon0.15_PT042H.grib2 2026-04-30 04:09 1.1M
20260430T00Z_MSC_GDPS_RadiativeTemp_Sfc_LatLon0.15_PT042H.grib2 2026-04-30 04:09 493K
20260430T00Z_MSC_GDPS_Rain-Accum12h_Sfc_LatLon0.15_PT042H.grib2 2026-04-30 04:09 2.7M
20260430T00Z_MSC_GDPS_Rain-Accum1h_Sfc_LatLon0.15_PT042H.grib2 2026-04-30 04:09 1.7M
20260430T00Z_MSC_GDPS_Rain-Accum24h_Sfc_LatLon0.15_PT042H.grib2 2026-04-30 04:09 3.2M
20260430T00Z_MSC_GDPS_Rain-Accum3h_Sfc_LatLon0.15_PT042H.grib2 2026-04-30 04:09 1.9M
20260430T00Z_MSC_GDPS_Rain-Accum6h_Sfc_LatLon0.15_PT042H.grib2 2026-04-30 04:09 2.5M
20260430T00Z_MSC_GDPS_Rain-Accum_Sfc_LatLon0.15_PT042H.grib2 2026-04-30 04:09 3.6M
20260430T00Z_MSC_GDPS_RelativeHumidity_AGL-2m_LatLon0.15_PT042H.grib2 2026-04-30 04:09 1.1M
20260430T00Z_MSC_GDPS_RelativeHumidity_IsbL-0010_LatLon0.15_PT042H.grib2 2026-04-30 04:09 198K
20260430T00Z_MSC_GDPS_RelativeHumidity_IsbL-0020_LatLon0.15_PT042H.grib2 2026-04-30 04:09 274K
20260430T00Z_MSC_GDPS_RelativeHumidity_IsbL-0030_LatLon0.15_PT042H.grib2 2026-04-30 04:09 270K
20260430T00Z_MSC_GDPS_RelativeHumidity_IsbL-0050_LatLon0.15_PT042H.grib2 2026-04-30 04:09 419K
20260430T00Z_MSC_GDPS_RelativeHumidity_IsbL-0100_LatLon0.15_PT042H.grib2 2026-04-30 04:09 518K
20260430T00Z_MSC_GDPS_RelativeHumidity_IsbL-0150_LatLon0.15_PT042H.grib2 2026-04-30 04:09 663K
20260430T00Z_MSC_GDPS_RelativeHumidity_IsbL-0175_LatLon0.15_PT042H.grib2 2026-04-30 04:09 778K
20260430T00Z_MSC_GDPS_RelativeHumidity_IsbL-0200_LatLon0.15_PT042H.grib2 2026-04-30 04:09 700K
20260430T00Z_MSC_GDPS_RelativeHumidity_IsbL-0225_LatLon0.15_PT042H.grib2 2026-04-30 04:09 794K
20260430T00Z_MSC_GDPS_RelativeHumidity_IsbL-0250_LatLon0.15_PT042H.grib2 2026-04-30 04:09 870K
20260430T00Z_MSC_GDPS_RelativeHumidity_IsbL-0275_LatLon0.15_PT042H.grib2 2026-04-30 04:09 891K
20260430T00Z_MSC_GDPS_RelativeHumidity_IsbL-0300_LatLon0.15_PT042H.grib2 2026-04-30 04:09 931K
20260430T00Z_MSC_GDPS_RelativeHumidity_IsbL-0350_LatLon0.15_PT042H.grib2 2026-04-30 04:09 949K
20260430T00Z_MSC_GDPS_RelativeHumidity_IsbL-0400_LatLon0.15_PT042H.grib2 2026-04-30 04:09 968K
20260430T00Z_MSC_GDPS_RelativeHumidity_IsbL-0450_LatLon0.15_PT042H.grib2 2026-04-30 04:09 1.0M
20260430T00Z_MSC_GDPS_RelativeHumidity_IsbL-0500_LatLon0.15_PT042H.grib2 2026-04-30 04:09 1.0M
20260430T00Z_MSC_GDPS_RelativeHumidity_IsbL-0550_LatLon0.15_PT042H.grib2 2026-04-30 04:09 1.0M
20260430T00Z_MSC_GDPS_RelativeHumidity_IsbL-0600_LatLon0.15_PT042H.grib2 2026-04-30 04:09 1.1M
20260430T00Z_MSC_GDPS_RelativeHumidity_IsbL-0650_LatLon0.15_PT042H.grib2 2026-04-30 04:09 1.1M
20260430T00Z_MSC_GDPS_RelativeHumidity_IsbL-0700_LatLon0.15_PT042H.grib2 2026-04-30 04:09 1.1M
20260430T00Z_MSC_GDPS_RelativeHumidity_IsbL-0750_LatLon0.15_PT042H.grib2 2026-04-30 04:09 1.2M
20260430T00Z_MSC_GDPS_RelativeHumidity_IsbL-0800_LatLon0.15_PT042H.grib2 2026-04-30 04:09 1.3M
20260430T00Z_MSC_GDPS_RelativeHumidity_IsbL-0850_LatLon0.15_PT042H.grib2 2026-04-30 04:09 1.3M
20260430T00Z_MSC_GDPS_RelativeHumidity_IsbL-0875_LatLon0.15_PT042H.grib2 2026-04-30 04:09 1.3M
20260430T00Z_MSC_GDPS_RelativeHumidity_IsbL-0900_LatLon0.15_PT042H.grib2 2026-04-30 04:09 1.3M
20260430T00Z_MSC_GDPS_RelativeHumidity_IsbL-0925_LatLon0.15_PT042H.grib2 2026-04-30 04:09 1.2M
20260430T00Z_MSC_GDPS_RelativeHumidity_IsbL-0950_LatLon0.15_PT042H.grib2 2026-04-30 04:09 1.2M
20260430T00Z_MSC_GDPS_RelativeHumidity_IsbL-0970_LatLon0.15_PT042H.grib2 2026-04-30 04:09 1.2M
20260430T00Z_MSC_GDPS_RelativeHumidity_IsbL-0985_LatLon0.15_PT042H.grib2 2026-04-30 04:09 1.2M
20260430T00Z_MSC_GDPS_RelativeHumidity_IsbL-1000_LatLon0.15_PT042H.grib2 2026-04-30 04:09 1.1M
20260430T00Z_MSC_GDPS_RelativeHumidity_IsbL-1015_LatLon0.15_PT042H.grib2 2026-04-30 04:09 1.1M
20260430T00Z_MSC_GDPS_RelativeVorticity_IsbL-0200_LatLon0.15_PT042H.grib2 2026-04-30 04:09 1.2M
20260430T00Z_MSC_GDPS_RelativeVorticity_IsbL-0250_LatLon0.15_PT042H.grib2 2026-04-30 04:09 1.3M
20260430T00Z_MSC_GDPS_RelativeVorticity_IsbL-0500_LatLon0.15_PT042H.grib2 2026-04-30 04:09 1.4M
20260430T00Z_MSC_GDPS_RelativeVorticity_IsbL-0700_LatLon0.15_PT042H.grib2 2026-04-30 04:09 1.6M
20260430T00Z_MSC_GDPS_RelativeVorticity_IsbL-0850_LatLon0.15_PT042H.grib2 2026-04-30 04:09 1.6M
20260430T00Z_MSC_GDPS_Runoff-Accum_Sfc_LatLon0.15_PT042H.grib2 2026-04-30 04:09 117K
20260430T00Z_MSC_GDPS_SensibleHeatNetFlux_Sfc_LatLon0.15_PT042H.grib2 2026-04-30 04:09 628K
20260430T00Z_MSC_GDPS_ShowalterIndex_IsbL-0500_LatLon0.15_PT042H.grib2 2026-04-30 04:09 6.2M
20260430T00Z_MSC_GDPS_Snow-Accum12h_Sfc_LatLon0.15_PT042H.grib2 2026-04-30 04:09 1.5M
20260430T00Z_MSC_GDPS_Snow-Accum1h_Sfc_LatLon0.15_PT042H.grib2 2026-04-30 04:09 1.0M
20260430T00Z_MSC_GDPS_Snow-Accum24h_Sfc_LatLon0.15_PT042H.grib2 2026-04-30 04:09 1.6M
20260430T00Z_MSC_GDPS_Snow-Accum3h_Sfc_LatLon0.15_PT042H.grib2 2026-04-30 04:09 1.1M
20260430T00Z_MSC_GDPS_Snow-Accum6h_Sfc_LatLon0.15_PT042H.grib2 2026-04-30 04:09 1.5M
20260430T00Z_MSC_GDPS_Snow-Accum_Sfc_LatLon0.15_PT042H.grib2 2026-04-30 04:09 1.9M
20260430T00Z_MSC_GDPS_SnowDensity_Sfc_LatLon0.15_PT042H.grib2 2026-04-30 04:09 263K
20260430T00Z_MSC_GDPS_SnowDepth_Sfc_LatLon0.15_PT042H.grib2 2026-04-30 04:09 1.7M
20260430T00Z_MSC_GDPS_SoilTemp_DBS-0to10cm_LatLon0.15_PT042H.grib2 2026-04-30 04:09 505K
20260430T00Z_MSC_GDPS_SoilTemp_Sfc_LatLon0.15_PT042H.grib2 2026-04-30 04:09 578K
20260430T00Z_MSC_GDPS_SoilVolumetricIceContent_Sfc_LatLon0.15_PT042H.grib2 2026-04-30 04:09 204K
20260430T00Z_MSC_GDPS_SoilVolumetricWaterContent_DBS-0to10cm_LatLon0.15_PT042H.grib2 2026-04-30 04:09 585K
20260430T00Z_MSC_GDPS_SoilVolumetricWaterContent_DBS-0to1cm_LatLon0.15_PT042H.grib2 2026-04-30 04:09 650K
20260430T00Z_MSC_GDPS_SpecificHumidity_AGL-120m_LatLon0.15_PT042H.grib2 2026-04-30 04:09 1.1M
20260430T00Z_MSC_GDPS_SpecificHumidity_AGL-2m_LatLon0.15_PT042H.grib2 2026-04-30 04:09 1.2M
20260430T00Z_MSC_GDPS_SpecificHumidity_AGL-40m_LatLon0.15_PT042H.grib2 2026-04-30 04:09 1.1M
20260430T00Z_MSC_GDPS_SpecificHumidity_AGL-80m_LatLon0.15_PT042H.grib2 2026-04-30 04:09 1.1M
20260430T00Z_MSC_GDPS_SpecificHumidity_IsbL-0001_LatLon0.15_PT042H.grib2 2026-04-30 04:09 1.3M
20260430T00Z_MSC_GDPS_SpecificHumidity_IsbL-0005_LatLon0.15_PT042H.grib2 2026-04-30 04:09 1.2M
20260430T00Z_MSC_GDPS_SpecificHumidity_IsbL-0010_LatLon0.15_PT042H.grib2 2026-04-30 04:09 1.3M
20260430T00Z_MSC_GDPS_SpecificHumidity_IsbL-0020_LatLon0.15_PT042H.grib2 2026-04-30 04:09 1.4M
20260430T00Z_MSC_GDPS_SpecificHumidity_IsbL-0030_LatLon0.15_PT042H.grib2 2026-04-30 04:09 1.3M
20260430T00Z_MSC_GDPS_SpecificHumidity_IsbL-0050_LatLon0.15_PT042H.grib2 2026-04-30 04:09 1.4M
20260430T00Z_MSC_GDPS_SpecificHumidity_IsbL-0100_LatLon0.15_PT042H.grib2 2026-04-30 04:09 1.4M
20260430T00Z_MSC_GDPS_SpecificHumidity_IsbL-0150_LatLon0.15_PT042H.grib2 2026-04-30 04:09 1.3M
20260430T00Z_MSC_GDPS_SpecificHumidity_IsbL-0175_LatLon0.15_PT042H.grib2 2026-04-30 04:09 1.2M
20260430T00Z_MSC_GDPS_SpecificHumidity_IsbL-0200_LatLon0.15_PT042H.grib2 2026-04-30 04:09 1.3M
20260430T00Z_MSC_GDPS_SpecificHumidity_IsbL-0225_LatLon0.15_PT042H.grib2 2026-04-30 04:09 1.3M
20260430T00Z_MSC_GDPS_SpecificHumidity_IsbL-0250_LatLon0.15_PT042H.grib2 2026-04-30 04:09 1.4M
20260430T00Z_MSC_GDPS_SpecificHumidity_IsbL-0275_LatLon0.15_PT042H.grib2 2026-04-30 04:09 1.3M
20260430T00Z_MSC_GDPS_SpecificHumidity_IsbL-0300_LatLon0.15_PT042H.grib2 2026-04-30 04:09 1.2M
20260430T00Z_MSC_GDPS_SpecificHumidity_IsbL-0350_LatLon0.15_PT042H.grib2 2026-04-30 04:09 1.2M
20260430T00Z_MSC_GDPS_SpecificHumidity_IsbL-0400_LatLon0.15_PT042H.grib2 2026-04-30 04:09 1.4M
20260430T00Z_MSC_GDPS_SpecificHumidity_IsbL-0450_LatLon0.15_PT042H.grib2 2026-04-30 04:09 1.6M
20260430T00Z_MSC_GDPS_SpecificHumidity_IsbL-0500_LatLon0.15_PT042H.grib2 2026-04-30 04:09 1.4M
20260430T00Z_MSC_GDPS_SpecificHumidity_IsbL-0550_LatLon0.15_PT042H.grib2 2026-04-30 04:09 1.6M
20260430T00Z_MSC_GDPS_SpecificHumidity_IsbL-0600_LatLon0.15_PT042H.grib2 2026-04-30 04:09 1.7M
20260430T00Z_MSC_GDPS_SpecificHumidity_IsbL-0650_LatLon0.15_PT042H.grib2 2026-04-30 04:09 1.5M
20260430T00Z_MSC_GDPS_SpecificHumidity_IsbL-0700_LatLon0.15_PT042H.grib2 2026-04-30 04:09 1.6M
20260430T00Z_MSC_GDPS_SpecificHumidity_IsbL-0750_LatLon0.15_PT042H.grib2 2026-04-30 04:09 1.7M
20260430T00Z_MSC_GDPS_SpecificHumidity_IsbL-0800_LatLon0.15_PT042H.grib2 2026-04-30 04:09 1.9M
20260430T00Z_MSC_GDPS_SpecificHumidity_IsbL-0850_LatLon0.15_PT042H.grib2 2026-04-30 04:09 1.9M
20260430T00Z_MSC_GDPS_SpecificHumidity_IsbL-0875_LatLon0.15_PT042H.grib2 2026-04-30 04:09 1.9M
20260430T00Z_MSC_GDPS_SpecificHumidity_IsbL-0900_LatLon0.15_PT042H.grib2 2026-04-30 04:09 1.9M
20260430T00Z_MSC_GDPS_SpecificHumidity_IsbL-0925_LatLon0.15_PT042H.grib2 2026-04-30 04:09 1.6M
20260430T00Z_MSC_GDPS_SpecificHumidity_IsbL-0950_LatLon0.15_PT042H.grib2 2026-04-30 04:09 1.6M
20260430T00Z_MSC_GDPS_SpecificHumidity_IsbL-0970_LatLon0.15_PT042H.grib2 2026-04-30 04:09 1.5M
20260430T00Z_MSC_GDPS_SpecificHumidity_IsbL-0985_LatLon0.15_PT042H.grib2 2026-04-30 04:09 1.5M
20260430T00Z_MSC_GDPS_SpecificHumidity_IsbL-1000_LatLon0.15_PT042H.grib2 2026-04-30 04:09 1.5M
20260430T00Z_MSC_GDPS_SpecificHumidity_IsbL-1015_LatLon0.15_PT042H.grib2 2026-04-30 04:09 1.5M
20260430T00Z_MSC_GDPS_SpecificHumidity_Sfc_LatLon0.15_PT042H.grib2 2026-04-30 04:09 669K
20260430T00Z_MSC_GDPS_Thickness_IsbL-0850to0700_LatLon0.15_PT042H.grib2 2026-04-30 04:09 466K
20260430T00Z_MSC_GDPS_Thickness_IsbL-1000to0500_LatLon0.15_PT042H.grib2 2026-04-30 04:09 369K
20260430T00Z_MSC_GDPS_Thickness_IsbL-1000to0850_LatLon0.15_PT042H.grib2 2026-04-30 04:09 488K
20260430T00Z_MSC_GDPS_TotalCloudCover_Sfc_LatLon0.15_PT042H.grib2 2026-04-30 04:09 829K
20260430T00Z_MSC_GDPS_TotalTotalsIndex_Sfc_LatLon0.15_PT042H.grib2 2026-04-30 04:09 6.2M
20260430T00Z_MSC_GDPS_UVIndex-ClearSky-Max24h_Sfc_LatLon0.15_PT042H.grib2 2026-04-30 04:50 2.2M
20260430T00Z_MSC_GDPS_UVIndex-ClearSky_Sfc_LatLon0.15_PT042H.grib2 2026-04-30 04:50 1.0M
20260430T00Z_MSC_GDPS_UVIndex-Max24h_Sfc_LatLon0.15_PT042H.grib2 2026-04-30 04:50 3.2M
20260430T00Z_MSC_GDPS_UVIndex_Sfc_LatLon0.15_PT042H.grib2 2026-04-30 04:50 1.5M
20260430T00Z_MSC_GDPS_UpwardLongwaveRadiationFlux_NTAtm_LatLon0.15_PT042H.grib2 2026-04-30 04:09 1.1M
20260430T00Z_MSC_GDPS_VerticalVelocity_IsbL-0200_LatLon0.15_PT042H.grib2 2026-04-30 04:09 929K
20260430T00Z_MSC_GDPS_VerticalVelocity_IsbL-0250_LatLon0.15_PT042H.grib2 2026-04-30 04:09 1.1M
20260430T00Z_MSC_GDPS_VerticalVelocity_IsbL-0500_LatLon0.15_PT042H.grib2 2026-04-30 04:09 1.0M
20260430T00Z_MSC_GDPS_VerticalVelocity_IsbL-0600_LatLon0.15_PT042H.grib2 2026-04-30 04:09 1.1M
20260430T00Z_MSC_GDPS_VerticalVelocity_IsbL-0700_LatLon0.15_PT042H.grib2 2026-04-30 04:09 1.2M
20260430T00Z_MSC_GDPS_VerticalVelocity_IsbL-0850_LatLon0.15_PT042H.grib2 2026-04-30 04:09 1.4M
20260430T00Z_MSC_GDPS_WindChill_Sfc_LatLon0.15_PT042H.grib2 2026-04-30 04:09 5.3M
20260430T00Z_MSC_GDPS_WindDir_AGL-10m_LatLon0.15_PT042H.grib2 2026-04-30 04:09 1.3M
20260430T00Z_MSC_GDPS_WindDir_AGL-120m_LatLon0.15_PT042H.grib2 2026-04-30 04:09 1.4M
20260430T00Z_MSC_GDPS_WindDir_AGL-40m_LatLon0.15_PT042H.grib2 2026-04-30 04:09 1.4M
20260430T00Z_MSC_GDPS_WindDir_AGL-80m_LatLon0.15_PT042H.grib2 2026-04-30 04:09 1.4M
20260430T00Z_MSC_GDPS_WindDir_IsbL-0001_LatLon0.15_PT042H.grib2 2026-04-30 04:09 666K
20260430T00Z_MSC_GDPS_WindDir_IsbL-0005_LatLon0.15_PT042H.grib2 2026-04-30 04:09 795K
20260430T00Z_MSC_GDPS_WindDir_IsbL-0010_LatLon0.15_PT042H.grib2 2026-04-30 04:09 843K
20260430T00Z_MSC_GDPS_WindDir_IsbL-0020_LatLon0.15_PT042H.grib2 2026-04-30 04:09 948K
20260430T00Z_MSC_GDPS_WindDir_IsbL-0030_LatLon0.15_PT042H.grib2 2026-04-30 04:09 937K
20260430T00Z_MSC_GDPS_WindDir_IsbL-0050_LatLon0.15_PT042H.grib2 2026-04-30 04:09 932K
20260430T00Z_MSC_GDPS_WindDir_IsbL-0100_LatLon0.15_PT042H.grib2 2026-04-30 04:09 1.0M
20260430T00Z_MSC_GDPS_WindDir_IsbL-0150_LatLon0.15_PT042H.grib2 2026-04-30 04:09 1.0M
20260430T00Z_MSC_GDPS_WindDir_IsbL-0175_LatLon0.15_PT042H.grib2 2026-04-30 04:09 1.1M
20260430T00Z_MSC_GDPS_WindDir_IsbL-0200_LatLon0.15_PT042H.grib2 2026-04-30 04:09 1.1M
20260430T00Z_MSC_GDPS_WindDir_IsbL-0225_LatLon0.15_PT042H.grib2 2026-04-30 04:09 1.1M
20260430T00Z_MSC_GDPS_WindDir_IsbL-0250_LatLon0.15_PT042H.grib2 2026-04-30 04:09 1.1M
20260430T00Z_MSC_GDPS_WindDir_IsbL-0275_LatLon0.15_PT042H.grib2 2026-04-30 04:09 1.2M
20260430T00Z_MSC_GDPS_WindDir_IsbL-0300_LatLon0.15_PT042H.grib2 2026-04-30 04:09 1.2M
20260430T00Z_MSC_GDPS_WindDir_IsbL-0350_LatLon0.15_PT042H.grib2 2026-04-30 04:09 1.2M
20260430T00Z_MSC_GDPS_WindDir_IsbL-0400_LatLon0.15_PT042H.grib2 2026-04-30 04:09 1.3M
20260430T00Z_MSC_GDPS_WindDir_IsbL-0450_LatLon0.15_PT042H.grib2 2026-04-30 04:09 1.3M
20260430T00Z_MSC_GDPS_WindDir_IsbL-0500_LatLon0.15_PT042H.grib2 2026-04-30 04:09 1.3M
20260430T00Z_MSC_GDPS_WindDir_IsbL-0550_LatLon0.15_PT042H.grib2 2026-04-30 04:09 1.4M
20260430T00Z_MSC_GDPS_WindDir_IsbL-0600_LatLon0.15_PT042H.grib2 2026-04-30 04:09 1.4M
20260430T00Z_MSC_GDPS_WindDir_IsbL-0650_LatLon0.15_PT042H.grib2 2026-04-30 04:09 1.5M
20260430T00Z_MSC_GDPS_WindDir_IsbL-0700_LatLon0.15_PT042H.grib2 2026-04-30 04:09 1.6M
20260430T00Z_MSC_GDPS_WindDir_IsbL-0750_LatLon0.15_PT042H.grib2 2026-04-30 04:09 1.7M
20260430T00Z_MSC_GDPS_WindDir_IsbL-0800_LatLon0.15_PT042H.grib2 2026-04-30 04:09 1.8M
20260430T00Z_MSC_GDPS_WindDir_IsbL-0850_LatLon0.15_PT042H.grib2 2026-04-30 04:09 1.9M
20260430T00Z_MSC_GDPS_WindDir_IsbL-0875_LatLon0.15_PT042H.grib2 2026-04-30 04:09 2.0M
20260430T00Z_MSC_GDPS_WindDir_IsbL-0900_LatLon0.15_PT042H.grib2 2026-04-30 04:09 2.0M
20260430T00Z_MSC_GDPS_WindDir_IsbL-0925_LatLon0.15_PT042H.grib2 2026-04-30 04:09 2.0M
20260430T00Z_MSC_GDPS_WindDir_IsbL-0950_LatLon0.15_PT042H.grib2 2026-04-30 04:09 2.0M
20260430T00Z_MSC_GDPS_WindDir_IsbL-0970_LatLon0.15_PT042H.grib2 2026-04-30 04:09 2.0M
20260430T00Z_MSC_GDPS_WindDir_IsbL-0985_LatLon0.15_PT042H.grib2 2026-04-30 04:09 2.0M
20260430T00Z_MSC_GDPS_WindDir_IsbL-1000_LatLon0.15_PT042H.grib2 2026-04-30 04:09 2.1M
20260430T00Z_MSC_GDPS_WindDir_IsbL-1015_LatLon0.15_PT042H.grib2 2026-04-30 04:09 2.0M
20260430T00Z_MSC_GDPS_WindGust-Max_AGL-10m_LatLon0.15_PT042H.grib2 2026-04-30 04:09 2.2M
20260430T00Z_MSC_GDPS_WindGust-Min_AGL-10m_LatLon0.15_PT042H.grib2 2026-04-30 04:09 2.2M
20260430T00Z_MSC_GDPS_WindGust_AGL-10m_LatLon0.15_PT042H.grib2 2026-04-30 04:09 2.1M
20260430T00Z_MSC_GDPS_WindSpeed_AGL-10m_LatLon0.15_PT042H.grib2 2026-04-30 04:09 1.1M
20260430T00Z_MSC_GDPS_WindSpeed_AGL-120m_LatLon0.15_PT042H.grib2 2026-04-30 04:09 1.3M
20260430T00Z_MSC_GDPS_WindSpeed_AGL-40m_LatLon0.15_PT042H.grib2 2026-04-30 04:09 1.3M
20260430T00Z_MSC_GDPS_WindSpeed_AGL-80m_LatLon0.15_PT042H.grib2 2026-04-30 04:09 1.3M
20260430T00Z_MSC_GDPS_WindSpeed_IsbL-0001_LatLon0.15_PT042H.grib2 2026-04-30 04:09 642K
20260430T00Z_MSC_GDPS_WindSpeed_IsbL-0005_LatLon0.15_PT042H.grib2 2026-04-30 04:09 613K
20260430T00Z_MSC_GDPS_WindSpeed_IsbL-0010_LatLon0.15_PT042H.grib2 2026-04-30 04:09 630K
20260430T00Z_MSC_GDPS_WindSpeed_IsbL-0020_LatLon0.15_PT042H.grib2 2026-04-30 04:09 862K
20260430T00Z_MSC_GDPS_WindSpeed_IsbL-0030_LatLon0.15_PT042H.grib2 2026-04-30 04:09 866K
20260430T00Z_MSC_GDPS_WindSpeed_IsbL-0050_LatLon0.15_PT042H.grib2 2026-04-30 04:09 906K
20260430T00Z_MSC_GDPS_WindSpeed_IsbL-0100_LatLon0.15_PT042H.grib2 2026-04-30 04:09 1.1M
20260430T00Z_MSC_GDPS_WindSpeed_IsbL-0150_LatLon0.15_PT042H.grib2 2026-04-30 04:09 1.0M
20260430T00Z_MSC_GDPS_WindSpeed_IsbL-0175_LatLon0.15_PT042H.grib2 2026-04-30 04:09 1.0M
20260430T00Z_MSC_GDPS_WindSpeed_IsbL-0200_LatLon0.15_PT042H.grib2 2026-04-30 04:09 1.1M
20260430T00Z_MSC_GDPS_WindSpeed_IsbL-0225_LatLon0.15_PT042H.grib2 2026-04-30 04:09 1.1M
20260430T00Z_MSC_GDPS_WindSpeed_IsbL-0250_LatLon0.15_PT042H.grib2 2026-04-30 04:09 1.1M
20260430T00Z_MSC_GDPS_WindSpeed_IsbL-0275_LatLon0.15_PT042H.grib2 2026-04-30 04:09 1.1M
20260430T00Z_MSC_GDPS_WindSpeed_IsbL-0300_LatLon0.15_PT042H.grib2 2026-04-30 04:09 1.1M
20260430T00Z_MSC_GDPS_WindSpeed_IsbL-0350_LatLon0.15_PT042H.grib2 2026-04-30 04:09 1.1M
20260430T00Z_MSC_GDPS_WindSpeed_IsbL-0400_LatLon0.15_PT042H.grib2 2026-04-30 04:09 1.1M
20260430T00Z_MSC_GDPS_WindSpeed_IsbL-0450_LatLon0.15_PT042H.grib2 2026-04-30 04:09 1.1M
20260430T00Z_MSC_GDPS_WindSpeed_IsbL-0500_LatLon0.15_PT042H.grib2 2026-04-30 04:09 1.1M
20260430T00Z_MSC_GDPS_WindSpeed_IsbL-0550_LatLon0.15_PT042H.grib2 2026-04-30 04:09 1.1M
20260430T00Z_MSC_GDPS_WindSpeed_IsbL-0600_LatLon0.15_PT042H.grib2 2026-04-30 04:09 1.1M
20260430T00Z_MSC_GDPS_WindSpeed_IsbL-0650_LatLon0.15_PT042H.grib2 2026-04-30 04:09 1.4M
20260430T00Z_MSC_GDPS_WindSpeed_IsbL-0700_LatLon0.15_PT042H.grib2 2026-04-30 04:09 1.5M
20260430T00Z_MSC_GDPS_WindSpeed_IsbL-0750_LatLon0.15_PT042H.grib2 2026-04-30 04:09 1.6M
20260430T00Z_MSC_GDPS_WindSpeed_IsbL-0800_LatLon0.15_PT042H.grib2 2026-04-30 04:09 1.7M
20260430T00Z_MSC_GDPS_WindSpeed_IsbL-0850_LatLon0.15_PT042H.grib2 2026-04-30 04:09 1.8M
20260430T00Z_MSC_GDPS_WindSpeed_IsbL-0875_LatLon0.15_PT042H.grib2 2026-04-30 04:09 1.8M
20260430T00Z_MSC_GDPS_WindSpeed_IsbL-0900_LatLon0.15_PT042H.grib2 2026-04-30 04:09 1.8M
20260430T00Z_MSC_GDPS_WindSpeed_IsbL-0925_LatLon0.15_PT042H.grib2 2026-04-30 04:09 1.8M
20260430T00Z_MSC_GDPS_WindSpeed_IsbL-0950_LatLon0.15_PT042H.grib2 2026-04-30 04:09 1.9M
20260430T00Z_MSC_GDPS_WindSpeed_IsbL-0970_LatLon0.15_PT042H.grib2 2026-04-30 04:09 1.9M
20260430T00Z_MSC_GDPS_WindSpeed_IsbL-0985_LatLon0.15_PT042H.grib2 2026-04-30 04:09 1.9M
20260430T00Z_MSC_GDPS_WindSpeed_IsbL-1000_LatLon0.15_PT042H.grib2 2026-04-30 04:09 1.9M
20260430T00Z_MSC_GDPS_WindSpeed_IsbL-1015_LatLon0.15_PT042H.grib2 2026-04-30 04:09 1.8M
20260430T00Z_MSC_GDPS_WindU_AGL-10m_LatLon0.15_PT042H.grib2 2026-04-30 04:09 1.3M
20260430T00Z_MSC_GDPS_WindU_AGL-120m_LatLon0.15_PT042H.grib2 2026-04-30 04:09 1.0M
20260430T00Z_MSC_GDPS_WindU_AGL-40m_LatLon0.15_PT042H.grib2 2026-04-30 04:09 1.0M
20260430T00Z_MSC_GDPS_WindU_AGL-80m_LatLon0.15_PT042H.grib2 2026-04-30 04:09 1.0M
20260430T00Z_MSC_GDPS_WindU_IsbL-0001_LatLon0.15_PT042H.grib2 2026-04-30 04:09 498K
20260430T00Z_MSC_GDPS_WindU_IsbL-0005_LatLon0.15_PT042H.grib2 2026-04-30 04:09 692K
20260430T00Z_MSC_GDPS_WindU_IsbL-0010_LatLon0.15_PT042H.grib2 2026-04-30 04:09 705K
20260430T00Z_MSC_GDPS_WindU_IsbL-0020_LatLon0.15_PT042H.grib2 2026-04-30 04:09 735K
20260430T00Z_MSC_GDPS_WindU_IsbL-0030_LatLon0.15_PT042H.grib2 2026-04-30 04:09 741K
20260430T00Z_MSC_GDPS_WindU_IsbL-0050_LatLon0.15_PT042H.grib2 2026-04-30 04:09 770K
20260430T00Z_MSC_GDPS_WindU_IsbL-0100_LatLon0.15_PT042H.grib2 2026-04-30 04:09 924K
20260430T00Z_MSC_GDPS_WindU_IsbL-0150_LatLon0.15_PT042H.grib2 2026-04-30 04:09 1.0M
20260430T00Z_MSC_GDPS_WindU_IsbL-0175_LatLon0.15_PT042H.grib2 2026-04-30 04:09 1.0M
20260430T00Z_MSC_GDPS_WindU_IsbL-0200_LatLon0.15_PT042H.grib2 2026-04-30 04:09 847K
20260430T00Z_MSC_GDPS_WindU_IsbL-0225_LatLon0.15_PT042H.grib2 2026-04-30 04:09 858K
20260430T00Z_MSC_GDPS_WindU_IsbL-0250_LatLon0.15_PT042H.grib2 2026-04-30 04:09 860K
20260430T00Z_MSC_GDPS_WindU_IsbL-0275_LatLon0.15_PT042H.grib2 2026-04-30 04:09 884K
20260430T00Z_MSC_GDPS_WindU_IsbL-0300_LatLon0.15_PT042H.grib2 2026-04-30 04:09 872K
20260430T00Z_MSC_GDPS_WindU_IsbL-0350_LatLon0.15_PT042H.grib2 2026-04-30 04:09 1.1M
20260430T00Z_MSC_GDPS_WindU_IsbL-0400_LatLon0.15_PT042H.grib2 2026-04-30 04:09 1.1M
20260430T00Z_MSC_GDPS_WindU_IsbL-0450_LatLon0.15_PT042H.grib2 2026-04-30 04:09 1.1M
20260430T00Z_MSC_GDPS_WindU_IsbL-0500_LatLon0.15_PT042H.grib2 2026-04-30 04:09 1.1M
20260430T00Z_MSC_GDPS_WindU_IsbL-0550_LatLon0.15_PT042H.grib2 2026-04-30 04:09 1.1M
20260430T00Z_MSC_GDPS_WindU_IsbL-0600_LatLon0.15_PT042H.grib2 2026-04-30 04:09 1.1M
20260430T00Z_MSC_GDPS_WindU_IsbL-0650_LatLon0.15_PT042H.grib2 2026-04-30 04:09 1.2M
20260430T00Z_MSC_GDPS_WindU_IsbL-0700_LatLon0.15_PT042H.grib2 2026-04-30 04:09 1.2M
20260430T00Z_MSC_GDPS_WindU_IsbL-0750_LatLon0.15_PT042H.grib2 2026-04-30 04:09 1.3M
20260430T00Z_MSC_GDPS_WindU_IsbL-0800_LatLon0.15_PT042H.grib2 2026-04-30 04:09 1.4M
20260430T00Z_MSC_GDPS_WindU_IsbL-0850_LatLon0.15_PT042H.grib2 2026-04-30 04:09 1.4M
20260430T00Z_MSC_GDPS_WindU_IsbL-0875_LatLon0.15_PT042H.grib2 2026-04-30 04:09 1.5M
20260430T00Z_MSC_GDPS_WindU_IsbL-0900_LatLon0.15_PT042H.grib2 2026-04-30 04:09 1.5M
20260430T00Z_MSC_GDPS_WindU_IsbL-0925_LatLon0.15_PT042H.grib2 2026-04-30 04:09 1.5M
20260430T00Z_MSC_GDPS_WindU_IsbL-0950_LatLon0.15_PT042H.grib2 2026-04-30 04:09 1.4M
20260430T00Z_MSC_GDPS_WindU_IsbL-0970_LatLon0.15_PT042H.grib2 2026-04-30 04:09 1.4M
20260430T00Z_MSC_GDPS_WindU_IsbL-0985_LatLon0.15_PT042H.grib2 2026-04-30 04:09 1.4M
20260430T00Z_MSC_GDPS_WindU_IsbL-1000_LatLon0.15_PT042H.grib2 2026-04-30 04:09 1.4M
20260430T00Z_MSC_GDPS_WindU_IsbL-1015_LatLon0.15_PT042H.grib2 2026-04-30 04:09 1.4M
20260430T00Z_MSC_GDPS_WindV_AGL-10m_LatLon0.15_PT042H.grib2 2026-04-30 04:09 1.3M
20260430T00Z_MSC_GDPS_WindV_AGL-120m_LatLon0.15_PT042H.grib2 2026-04-30 04:09 1.0M
20260430T00Z_MSC_GDPS_WindV_AGL-40m_LatLon0.15_PT042H.grib2 2026-04-30 04:09 1.0M
20260430T00Z_MSC_GDPS_WindV_AGL-80m_LatLon0.15_PT042H.grib2 2026-04-30 04:09 1.0M
20260430T00Z_MSC_GDPS_WindV_IsbL-0001_LatLon0.15_PT042H.grib2 2026-04-30 04:09 777K
20260430T00Z_MSC_GDPS_WindV_IsbL-0005_LatLon0.15_PT042H.grib2 2026-04-30 04:09 764K
20260430T00Z_MSC_GDPS_WindV_IsbL-0010_LatLon0.15_PT042H.grib2 2026-04-30 04:09 799K
20260430T00Z_MSC_GDPS_WindV_IsbL-0020_LatLon0.15_PT042H.grib2 2026-04-30 04:09 856K
20260430T00Z_MSC_GDPS_WindV_IsbL-0030_LatLon0.15_PT042H.grib2 2026-04-30 04:09 857K
20260430T00Z_MSC_GDPS_WindV_IsbL-0050_LatLon0.15_PT042H.grib2 2026-04-30 04:09 906K
20260430T00Z_MSC_GDPS_WindV_IsbL-0100_LatLon0.15_PT042H.grib2 2026-04-30 04:09 1.1M
20260430T00Z_MSC_GDPS_WindV_IsbL-0150_LatLon0.15_PT042H.grib2 2026-04-30 04:09 1.0M
20260430T00Z_MSC_GDPS_WindV_IsbL-0175_LatLon0.15_PT042H.grib2 2026-04-30 04:09 1.0M
20260430T00Z_MSC_GDPS_WindV_IsbL-0200_LatLon0.15_PT042H.grib2 2026-04-30 04:09 847K
20260430T00Z_MSC_GDPS_WindV_IsbL-0225_LatLon0.15_PT042H.grib2 2026-04-30 04:09 856K
20260430T00Z_MSC_GDPS_WindV_IsbL-0250_LatLon0.15_PT042H.grib2 2026-04-30 04:09 854K
20260430T00Z_MSC_GDPS_WindV_IsbL-0275_LatLon0.15_PT042H.grib2 2026-04-30 04:09 878K
20260430T00Z_MSC_GDPS_WindV_IsbL-0300_LatLon0.15_PT042H.grib2 2026-04-30 04:09 866K
20260430T00Z_MSC_GDPS_WindV_IsbL-0350_LatLon0.15_PT042H.grib2 2026-04-30 04:09 873K
20260430T00Z_MSC_GDPS_WindV_IsbL-0400_LatLon0.15_PT042H.grib2 2026-04-30 04:09 876K
20260430T00Z_MSC_GDPS_WindV_IsbL-0450_LatLon0.15_PT042H.grib2 2026-04-30 04:09 880K
20260430T00Z_MSC_GDPS_WindV_IsbL-0500_LatLon0.15_PT042H.grib2 2026-04-30 04:09 1.1M
20260430T00Z_MSC_GDPS_WindV_IsbL-0550_LatLon0.15_PT042H.grib2 2026-04-30 04:09 1.1M
20260430T00Z_MSC_GDPS_WindV_IsbL-0600_LatLon0.15_PT042H.grib2 2026-04-30 04:09 1.1M
20260430T00Z_MSC_GDPS_WindV_IsbL-0650_LatLon0.15_PT042H.grib2 2026-04-30 04:09 1.2M
20260430T00Z_MSC_GDPS_WindV_IsbL-0700_LatLon0.15_PT042H.grib2 2026-04-30 04:09 1.2M
20260430T00Z_MSC_GDPS_WindV_IsbL-0750_LatLon0.15_PT042H.grib2 2026-04-30 04:09 1.3M
20260430T00Z_MSC_GDPS_WindV_IsbL-0800_LatLon0.15_PT042H.grib2 2026-04-30 04:09 1.4M
20260430T00Z_MSC_GDPS_WindV_IsbL-0850_LatLon0.15_PT042H.grib2 2026-04-30 04:09 1.4M
20260430T00Z_MSC_GDPS_WindV_IsbL-0875_LatLon0.15_PT042H.grib2 2026-04-30 04:09 1.5M
20260430T00Z_MSC_GDPS_WindV_IsbL-0900_LatLon0.15_PT042H.grib2 2026-04-30 04:09 1.5M
20260430T00Z_MSC_GDPS_WindV_IsbL-0925_LatLon0.15_PT042H.grib2 2026-04-30 04:09 1.5M
20260430T00Z_MSC_GDPS_WindV_IsbL-0950_LatLon0.15_PT042H.grib2 2026-04-30 04:09 1.4M
20260430T00Z_MSC_GDPS_WindV_IsbL-0970_LatLon0.15_PT042H.grib2 2026-04-30 04:09 1.4M
20260430T00Z_MSC_GDPS_WindV_IsbL-0985_LatLon0.15_PT042H.grib2 2026-04-30 04:09 1.4M
20260430T00Z_MSC_GDPS_WindV_IsbL-1000_LatLon0.15_PT042H.grib2 2026-04-30 04:09 1.4M
20260430T00Z_MSC_GDPS_WindV_IsbL-1015_LatLon0.15_PT042H.grib2 2026-04-30 04:09 1.4M